Clarksburg, WV

11:36 PM EDT on June 22, 2017 (GMT -0400)
Benedum

Weather History for KCKB - December, 2012

Change the Weather History Date:

Tuesday, December 11, 2012

  Actual Average Record
Temperature  
Mean Temperature 33 °F -  
Max Temperature 36 °F 43 °F 75 °F (1971)
Min Temperature 30 °F 25 °F 3 °F (1934)
Degree Days  
Heating Degree Days 32    
Moisture  
Dew Point 29 °F    
Average Humidity 80    
Maximum Humidity 93    
Minimum Humidity 67    
Precipitation  
Precipitation 0.01 in - - ()
Sea Level Pressure  
Sea Level Pressure 30.05 in    
Wind  
Wind Speed 7 mph (WSW)    
Max Wind Speed 12 mph    
Max Gust Speed 18 mph    
Visibility 9 miles    
Events Rain , Snow    
Averages and records for this station are not official NWS values.
T = Trace of Precipitation, MM = Missing Value Source: NWS Daily Summary

Daily Weather History Graph

Daily Weather History Graph

Search for Another Location

Airport or City:

Trip Planner

Search our weather history database for the weather conditions in past years. The results will help you decide how hot, cold, wet, or windy it might be!

Date:

Astronomy

Dec. 11, 2012 Rise Set
Actual Time 7:30 AM EST 4:57 PM EST
Civil Twilight 7:00 AM EST 5:27 PM EST
Nautical Twilight 6:27 AM EST 6:01 PM EST
Astronomical Twilight 5:54 AM EST 6:34 PM EST
Moon 5:24 AM EST (12/11) 3:35 PM EST (12/11)
Length of Visible Light 10h 27m
Length of Day
9h 26m
Waning Crescent, 4% of the Moon is Illuminated
Dec 11
Waning Crescent
Dec 13
New
Dec 20
First Quarter
Dec 28
Full
Jan 4
Last Quarter

Hourly Weather History & Observations

Time (EST) Temp. Windchill Dew Point Humidity Pressure Visibility Wind Dir Wind Speed Gust Speed Precip Events Conditions
12:53 AM 36.0 °F 33.3 °F 34.0 °F 93% 29.83 in 10.0 mi West 3.5 mph - 0.00 in   Overcast
1:53 AM 36.0 °F 30.3 °F 34.0 °F 93% 29.84 in 10.0 mi West 6.9 mph - N/A   Overcast
2:53 AM 36.0 °F 30.3 °F 34.0 °F 93% 29.87 in 6.0 mi WSW 6.9 mph - N/A   Overcast
3:53 AM 35.1 °F 27.9 °F 33.1 °F 92% 29.88 in 7.0 mi WNW 9.2 mph - 0.01 in Rain Light Rain
4:39 AM 35.6 °F 28.0 °F 30.2 °F 81% 29.91 in 8.0 mi West 10.4 mph - 0.00 in   Overcast
4:53 AM 34.0 °F 26.6 °F 30.9 °F 89% 29.92 in 8.0 mi WSW 9.2 mph 18.4 mph 0.00 in   Overcast
5:06 AM 35.6 °F 29.2 °F 30.2 °F 81% 29.92 in 9.0 mi WSW 8.1 mph - N/A   Overcast
5:49 AM 33.8 °F 26.4 °F 30.2 °F 87% 29.94 in 9.0 mi West 9.2 mph - N/A   Overcast
5:53 AM 34.0 °F 28.0 °F 30.0 °F 85% 29.95 in 9.0 mi West 6.9 mph - N/A   Overcast
6:53 AM 34.0 °F 27.2 °F 28.0 °F 79% 29.98 in 10.0 mi WSW 8.1 mph - N/A   Overcast
7:50 AM 33.8 °F 27.7 °F 26.6 °F 75% 29.99 in 8.0 mi SSW 6.9 mph - N/A   Overcast
7:53 AM 34.0 °F 27.2 °F 28.0 °F 79% 30.00 in 8.0 mi SW 8.1 mph - N/A   Overcast
8:53 AM 34.0 °F 28.0 °F 28.0 °F 79% 30.04 in 8.0 mi WSW 6.9 mph - N/A   Overcast
9:15 AM 33.8 °F 27.0 °F 28.4 °F 81% 30.03 in 10.0 mi West 8.1 mph - N/A   Overcast
9:40 AM 33.8 °F 27.0 °F 28.4 °F 81% 30.04 in 9.0 mi West 8.1 mph - N/A   Overcast
9:53 AM 34.0 °F 28.0 °F 28.9 °F 82% 30.06 in 9.0 mi West 6.9 mph - N/A   Overcast
10:53 AM 35.1 °F 27.9 °F 30.0 °F 82% 30.07 in 9.0 mi WSW 9.2 mph - 0.00 in   Overcast
11:07 AM 35.6 °F 27.5 °F 30.2 °F 81% 30.06 in 10.0 mi WSW 11.5 mph - N/A   Overcast
11:50 AM 35.6 °F 28.0 °F 30.2 °F 81% 30.06 in 10.0 mi WSW 10.4 mph - N/A   Overcast
11:53 AM 36.0 °F 30.3 °F 30.0 °F 79% 30.08 in 10.0 mi WSW 6.9 mph - N/A   Overcast
12:39 PM 33.8 °F 25.3 °F 28.4 °F 81% 30.06 in 2.0 mi West 11.5 mph - 0.00 in Snow Light Snow
12:50 PM 33.8 °F 27.0 °F 28.4 °F 81% 30.07 in 7.0 mi West 8.1 mph - 0.00 in   Overcast
12:53 PM 34.0 °F 28.0 °F 28.0 °F 79% 30.08 in 9.0 mi WSW 6.9 mph - 0.00 in   Overcast
1:01 PM 35.6 °F 29.2 °F 28.4 °F 75% 30.07 in 10.0 mi West 8.1 mph - N/A   Overcast
1:53 PM 35.1 °F 27.9 °F 27.0 °F 72% 30.08 in 10.0 mi WSW 9.2 mph - N/A   Mostly Cloudy
2:53 PM 36.0 °F 29.6 °F 27.0 °F 70% 30.09 in 10.0 mi SW 8.1 mph - N/A   Overcast
3:53 PM 36.0 °F 29.6 °F 26.1 °F 67% 30.11 in 10.0 mi SSW 8.1 mph - N/A   Overcast
4:53 PM 35.1 °F 29.3 °F 27.0 °F 72% 30.14 in 10.0 mi SSW 6.9 mph - N/A   Overcast
5:53 PM 35.1 °F 29.3 °F 26.1 °F 70% 30.15 in 10.0 mi SW 6.9 mph - N/A   Overcast
6:53 PM 34.0 °F 28.0 °F 27.0 °F 75% 30.17 in 10.0 mi SSW 6.9 mph - N/A   Overcast
7:53 PM 33.1 °F 30.0 °F 26.1 °F 75% 30.20 in 10.0 mi SSW 3.5 mph - N/A   Overcast
8:53 PM 33.1 °F - 26.1 °F 75% 30.21 in 10.0 mi Calm Calm - N/A   Overcast
9:53 PM 32.0 °F 28.7 °F 25.0 °F 75% 30.23 in 10.0 mi South 3.5 mph - N/A   Overcast
10:53 PM 30.9 °F - 24.1 °F 76% 30.23 in 10.0 mi Calm Calm - N/A   Clear
11:53 PM 30.0 °F - 24.1 °F 79% 30.24 in 10.0 mi Calm Calm - N/A   Clear